Lapeer, MI

9:05 AM EDT on May 27, 2017 (GMT -0400)
Lapeer

Weather History for KD95 - January, 2014

Change the Weather History Date:

Wednesday, January 15, 2014

  Actual Average (KFNT) Record (KFNT)
Temperature  
Mean Temperature 24 °F -  
Max Temperature 30 °F 26 °F 57 °F (1953)
Min Temperature 19 °F 11 °F -18 °F (1984)
Degree Days  
Heating Degree Days 40    
Moisture  
Dew Point 17 °F    
Average Humidity 73    
Maximum Humidity 86    
Minimum Humidity 63    
Precipitation  
Precipitation 0.00 in - - ()
Sea Level Pressure  
Sea Level Pressure 29.83 in    
Wind  
Wind Speed 14 mph (West)    
Max Wind Speed 21 mph    
Max Gust Speed 29 mph    
Visibility 10 miles    
Events Snow    
Averages and records for this station are not official NWS values.
T = Trace of Precipitation, MM = Missing Value Source: NWS Daily Summary

Daily Weather History Graph

Daily Weather History Graph

Search for Another Location

Airport or City:

Trip Planner

Search our weather history database for the weather conditions in past years. The results will help you decide how hot, cold, wet, or windy it might be!

Date:

Astronomy

Jan. 15, 2014 Rise Set
Actual Time 8:01 AM EST 5:23 PM EST
Civil Twilight 7:30 AM EST 5:55 PM EST
Nautical Twilight 6:55 AM EST 6:30 PM EST
Astronomical Twilight 6:21 AM EST 7:04 PM EST
Moon 5:22 PM EST (1/15) 7:15 AM EST (1/15)
Length of Visible Light 10h 24m
Length of Day
9h 22m
Full, 100% of the Moon is Illuminated
Jan 15
Full
Jan 15
Full
Jan 24
Last Quarter
Jan 30
New
Feb 6
First Quarter

Hourly Weather History & Observations

Time (EST) Temp. Windchill Dew Point Humidity Pressure Visibility Wind Dir Wind Speed Gust Speed Precip Events Conditions
12:14 AM 30.2 °F 17.4 °F 19.8 °F 65% 29.68 in 10.0 mi WSW 20.7 mph 28.8 mph N/A   Overcast
12:33 AM 29.7 °F 17.8 °F 18.3 °F 63% 29.67 in 10.0 mi WSW 17.3 mph 25.3 mph N/A   Overcast
12:54 AM 29.3 °F 17.7 °F 19.0 °F 66% 29.67 in 10.0 mi WSW 16.1 mph 25.3 mph N/A   Overcast
1:14 AM 28.4 °F 16.2 °F 20.3 °F 72% 29.67 in 10.0 mi West 17.3 mph 26.5 mph N/A   Overcast
1:33 AM 27.5 °F 15.4 °F 19.8 °F 73% 29.67 in 10.0 mi WSW 16.1 mph 26.5 mph N/A Snow Light Snow
1:54 AM 27.3 °F 14.0 °F 19.0 °F 71% 29.67 in 10.0 mi WSW 19.6 mph 26.5 mph N/A Snow Light Snow
2:13 AM 27.1 °F 13.8 °F 17.6 °F 67% 29.66 in 10.0 mi WSW 19.6 mph 28.8 mph N/A   Overcast
2:34 AM 26.8 °F 14.1 °F 17.4 °F 68% 29.66 in 10.0 mi SW 17.3 mph 26.5 mph N/A   Overcast
2:54 AM 26.6 °F 14.3 °F 17.4 °F 68% 29.66 in 10.0 mi SW 16.1 mph 28.8 mph N/A   Overcast
3:14 AM 26.6 °F 15.7 °F 17.6 °F 69% 29.66 in 10.0 mi SW 12.7 mph 24.2 mph N/A   Overcast
3:34 AM 26.4 °F 14.5 °F 18.0 °F 70% 29.66 in 10.0 mi SW 15.0 mph 21.9 mph N/A   Overcast
3:53 AM 26.4 °F 13.6 °F 18.3 °F 71% 29.66 in 10.0 mi SW 17.3 mph 24.2 mph N/A   Overcast
4:14 AM 26.2 °F 13.0 °F 19.0 °F 74% 29.66 in 10.0 mi SW 18.4 mph 28.8 mph N/A   Overcast
4:34 AM 26.2 °F 13.0 °F 19.0 °F 74% 29.66 in 10.0 mi SW 18.4 mph 25.3 mph N/A   Overcast
4:53 AM 26.2 °F 12.6 °F 19.2 °F 75% 29.67 in 10.0 mi SW 19.6 mph 27.6 mph N/A   Overcast
5:14 AM 26.2 °F 13.4 °F 19.0 °F 74% 29.67 in 10.0 mi SW 17.3 mph 26.5 mph N/A   Overcast
5:34 AM 26.1 °F 13.1 °F 19.4 °F 76% 29.68 in 10.0 mi SW 17.3 mph 26.5 mph N/A   Overcast
5:54 AM 25.7 °F 13.1 °F 19.8 °F 78% 29.69 in 10.0 mi SW 16.1 mph 23.0 mph N/A   Overcast
6:14 AM 25.7 °F 13.5 °F 20.1 °F 79% 29.69 in 10.0 mi SW 15.0 mph 21.9 mph N/A   Overcast
6:33 AM 25.9 °F 15.3 °F 20.8 °F 81% 29.70 in 10.0 mi WSW 11.5 mph - N/A   Overcast
6:54 AM 26.2 °F 15.2 °F 21.6 °F 82% 29.71 in 10.0 mi WSW 12.7 mph 16.1 mph N/A   Overcast
7:14 AM 26.4 °F 17.3 °F 22.3 °F 84% 29.72 in 10.0 mi WSW 9.2 mph - N/A   Overcast
7:34 AM 26.6 °F 15.7 °F 22.8 °F 86% 29.73 in 10.0 mi WSW 12.7 mph 16.1 mph N/A   Overcast
7:54 AM 26.4 °F 13.6 °F 20.7 °F 79% 29.75 in 10.0 mi West 17.3 mph 21.9 mph N/A   Overcast
8:13 AM 25.2 °F 13.3 °F 18.9 °F 77% 29.77 in 10.0 mi WNW 13.8 mph 23.0 mph N/A   Overcast
8:34 AM 24.8 °F 13.4 °F 18.5 °F 77% 29.79 in 10.0 mi WNW 12.7 mph 21.9 mph N/A   Overcast
8:53 AM 24.8 °F 15.3 °F 18.5 °F 77% 29.80 in 10.0 mi WNW 9.2 mph - N/A   Overcast
9:14 AM 24.6 °F 15.8 °F 18.5 °F 78% 29.82 in 10.0 mi West 8.1 mph 17.3 mph N/A   Overcast
9:34 AM 24.3 °F 12.7 °F 17.6 °F 76% 29.84 in 10.0 mi West 12.7 mph 19.6 mph N/A   Overcast
9:53 AM 23.9 °F 11.2 °F 17.4 °F 76% 29.85 in 10.0 mi West 15.0 mph 21.9 mph N/A   Overcast
10:14 AM 23.9 °F 12.9 °F 17.4 °F 76% 29.86 in 10.0 mi WNW 11.5 mph 18.4 mph N/A   Overcast
10:33 AM 23.9 °F 11.7 °F 18.0 °F 78% 29.87 in 4.0 mi WNW 13.8 mph 18.4 mph N/A Snow Light Snow
10:54 AM 23.5 °F 12.4 °F 19.0 °F 83% 29.88 in 1.8 mi West 11.5 mph 19.6 mph N/A Snow Light Snow
11:14 AM 23.9 °F 12.3 °F 18.5 °F 80% 29.88 in 5.0 mi West 12.7 mph 18.4 mph N/A Snow Light Snow
11:33 AM 25.3 °F 13.6 °F 18.5 °F 75% 29.89 in 7.0 mi West 13.8 mph 19.6 mph N/A Snow Light Snow
11:54 AM 23.7 °F 13.3 °F 16.5 °F 74% 29.89 in 10.0 mi West 10.4 mph 16.1 mph N/A   Overcast
12:13 PM 23.7 °F 12.6 °F 15.4 °F 71% 29.89 in 10.0 mi NW 11.5 mph - N/A   Overcast
12:34 PM 24.6 °F 15.1 °F 15.6 °F 69% 29.89 in 10.0 mi WNW 9.2 mph - N/A   Overcast
12:54 PM 24.6 °F 12.7 °F 15.6 °F 69% 29.88 in 10.0 mi WNW 13.8 mph 21.9 mph N/A   Overcast
1:13 PM 24.4 °F 13.0 °F 16.2 °F 71% 29.89 in 10.0 mi West 12.7 mph 16.1 mph N/A   Overcast
1:34 PM 24.3 °F 12.2 °F 16.7 °F 73% 29.88 in 10.0 mi WNW 13.8 mph 19.6 mph N/A   Overcast
1:54 PM 24.8 °F 14.0 °F 16.2 °F 70% 29.88 in 10.0 mi West 11.5 mph 16.1 mph N/A   Overcast
2:14 PM 25.2 °F 15.1 °F 16.0 °F 68% 29.89 in 10.0 mi West 10.4 mph 17.3 mph N/A   Overcast
2:34 PM 24.1 °F 12.5 °F 15.3 °F 69% 29.90 in 10.0 mi West 12.7 mph 20.7 mph N/A   Overcast
2:53 PM 24.3 °F 12.7 °F 14.7 °F 67% 29.90 in 10.0 mi West 12.7 mph 18.4 mph N/A   Overcast
3:14 PM 24.4 °F 14.9 °F 15.3 °F 68% 29.91 in 10.0 mi West 9.2 mph 17.3 mph N/A   Overcast
3:34 PM 24.6 °F 15.8 °F 15.4 °F 68% 29.90 in 10.0 mi West 8.1 mph - N/A   Overcast
3:53 PM 24.4 °F 14.2 °F 15.1 °F 68% 29.91 in 10.0 mi WNW 10.4 mph 18.4 mph N/A   Overcast
4:14 PM 24.3 °F 13.3 °F 14.7 °F 67% 29.93 in 10.0 mi West 11.5 mph - N/A   Overcast
4:34 PM 23.9 °F 13.5 °F 14.7 °F 68% 29.93 in 10.0 mi West 10.4 mph 16.1 mph N/A   Overcast
4:54 PM 23.7 °F 15.6 °F 15.1 °F 70% 29.93 in 10.0 mi West 6.9 mph - N/A Snow Light Snow
5:14 PM 23.5 °F 16.4 °F 15.6 °F 72% 29.94 in 10.0 mi WNW 5.8 mph - N/A   Overcast
5:34 PM 23.5 °F 15.4 °F 16.2 °F 73% 29.95 in 10.0 mi West 6.9 mph - N/A   Overcast
5:54 PM 23.4 °F 14.3 °F 16.9 °F 76% 29.95 in 10.0 mi West 8.1 mph - N/A Snow Light Snow
6:13 PM 23.0 °F 14.7 °F 17.6 °F 80% 29.95 in 10.0 mi WNW 6.9 mph - N/A   Overcast
6:34 PM 23.0 °F 13.9 °F 16.7 °F 77% 29.95 in 10.0 mi West 8.1 mph - N/A Snow Light Snow
6:54 PM 23.0 °F 13.9 °F 16.7 °F 77% 29.95 in 10.0 mi West 8.1 mph - N/A Snow Light Snow
7:13 PM 22.8 °F 12.2 °F 16.5 °F 77% 29.95 in 10.0 mi West 10.4 mph - N/A Snow Light Snow
7:34 PM 22.1 °F 15.9 °F 15.8 °F 77% 29.94 in 10.0 mi West 4.6 mph - N/A   Overcast
7:54 PM 21.4 °F 10.4 °F 13.6 °F 72% 29.95 in 10.0 mi West 10.4 mph - N/A   Mostly Cloudy
8:14 PM 20.3 °F 9.0 °F 12.0 °F 70% 29.96 in 10.0 mi West 10.4 mph - N/A   Clear
8:34 PM 19.8 °F 10.8 °F 11.8 °F 71% 29.96 in 10.0 mi WSW 6.9 mph - N/A   Clear
8:53 PM 19.2 °F 11.3 °F 11.3 °F 71% 29.96 in 10.0 mi WSW 5.8 mph - N/A   Clear
9:14 PM 19.0 °F 10.0 °F 10.9 °F 71% 29.96 in 10.0 mi West 6.9 mph - N/A   Mostly Cloudy
9:34 PM 19.4 °F 12.8 °F 11.7 °F 72% 29.95 in 10.0 mi SW 4.6 mph - N/A   Overcast
9:54 PM 20.3 °F 12.5 °F 12.4 °F 71% 29.94 in 10.0 mi SW 5.8 mph - N/A   Overcast
10:14 PM 20.3 °F 12.5 °F 12.6 °F 72% 29.95 in 10.0 mi WSW 5.8 mph - N/A   Overcast
10:33 PM 20.7 °F 11.9 °F 12.7 °F 71% 29.94 in 10.0 mi SW 6.9 mph - N/A   Overcast
10:54 PM 20.8 °F 12.1 °F 12.2 °F 69% 29.94 in 10.0 mi West 6.9 mph - N/A   Overcast
11:14 PM 20.8 °F 10.4 °F 12.4 °F 70% 29.93 in 10.0 mi WSW 9.2 mph - N/A   Overcast
11:33 PM 21.0 °F 12.4 °F 13.1 °F 71% 29.92 in 10.0 mi SW 6.9 mph - N/A   Overcast
11:54 PM 20.7 °F 13.0 °F 13.8 °F 75% 29.91 in 10.0 mi SW 5.8 mph - N/A   Overcast